Hourly Data Report for May 20, 2022

MIRAMICHI RCS
NEW BRUNSWICK
Current Station Operator: ECCC - MSC

47°00'34.000" N
65°27'54.000" W
33.00 m
8100989
71744
ACQ

Download Data

Hourly Data (May 2022)
Hourly Data Report for May 20, 2022
TIME
LST
Temp Definition
°C
Dew Point Definition
°C
Rel Hum Definition
%
Precip. Amount Definition
mm

Wind Dir Definition
10's deg

Wind Spd Definition
km/h
Visibility Definition
km
Stn Press Definition
kPa
Hmdx Definition


Wind Chill Definition


Weather Definition


00:00 10.1 0.6 52 0.0 18 15   100.60     LegendNANA
01:00 10.5 1.5 54 0.0 21 15   100.64     LegendNANA
02:00 9.7 3.2 64 0.0 24 12   100.67     LegendNANA
03:00 7.4 3.4 76 0.0 22 9   100.70     LegendNANA
04:00 6.3 3.1 80 0.0 20 8   100.80     LegendNANA
05:00 5.6 3.1 84 0.0 24 1   100.88     LegendNANA
06:00 7.0 4.5 84 0.0 21 4   100.94     LegendNANA
07:00 10.3 4.9 69 0.0 25 4   101.01     LegendNANA
08:00 13.0 4.8 57 0.0 27 13   101.03     LegendNANA
09:00 14.5 4.8 52 0.0 23 11   101.06     LegendNANA
10:00 16.3 5.0 47 0.0 25 10   101.12     LegendNANA
11:00 17.7 4.4 41 0.0 21 10   101.13     LegendNANA
12:00 18.1 3.6 38 0.0 20 10   101.17     LegendNANA
13:00 19.4 4.1 36 0.0 21 11   101.10     LegendNANA
14:00 20.3 3.0 32 0.0 21 17   101.13     LegendNANA
15:00 20.9 3.7 32 0.0 23 18   101.14     LegendNANA
16:00 20.7 4.4 34 0.0 21 10   101.18     LegendNANA
17:00 19.2 3.7 36 0.0 19 15   101.17     LegendNANA
18:00 18.9 4.2 38 0.0 20 20   101.18     LegendNANA
19:00 17.6 5.0 43 0.0 23 16   101.21     LegendNANA
20:00 15.4 5.6 52 0.0 23 11   101.24     LegendNANA
21:00 13.4 5.9 60 0.0 15 10   101.28     LegendNANA
22:00 12.0 5.8 66 0.0 20 7   101.37     LegendNANA
23:00 11.6 6.1 69 0.0 18 12   101.35     LegendNANA

Notes on Data Quality.

Legend

  • E = Estimated
  • M = Missing
  • NA = Not Available*
  • [empty] = Indicates an unobserved value
Date modified: